Flag for Germany Weather past 2 weeks in Mainz, Rhineland-Palatinate, Germany

Now
54 °F

Partly sunny.


Feels Like: 51 °F
Forecast: 32 / 59 °F
Wind: 9 mph from Northwest

Location: Wiesbaden Airport

Current Time: Apr 28, 2015 at 2:26:16 PM

Latest Report: Apr 28, 2015 at 1:58 PM


Visibility: N/A

Pressure: 30.02 "Hg

Humidity: 45%

Dew point: 33 °F

Location of MainzLocation

Historic Weather in Mainz — Graph

°F

Mainz temperature yesterday

Maximum temperature yesterday: 57 °F (at 10:58 AM)
Minimum temperature yesterday: 46 °F (at 10:58 PM)
Average temperature yesterday: 53 °F

Past Weeks' High & Low Weather Summary

 TemperatureHumidityPressure
High76 °F (Apr 15, 3:58 PM)100% (Apr 26, 1:58 AM)30.84 "Hg (Apr 26, 1:58 AM)
Low37 °F (Apr 14, 4:58 AM)23% (Apr 21, 2:58 PM)29.57 "Hg (Apr 27, 6:58 AM)
Average55 °F62%30.07 "Hg
* Reported Apr 13 12:58 PM — Apr 28 12:58 PM, Mainz, Weather by CustomWeather, © 2015

Note: Actual official high and low records may vary slightly from our data, if they occured in-between our weather recording intervals... More about our weather records

Advertising

Mainz weather history for previous 24 hours

 ConditionsComfort  
Time TempWeatherWind HumidityBarometerVisibility
12:58 PM
Tue, Apr 28
55 °FSunny.9 mph41%30.01 "HgN/A
11:58 AM53 °FPassing clouds.10 mph55%30.00 "HgN/A
10:59 AM52 °FScattered clouds.9 mph58%29.97 "HgN/A
10:58 AM52 °FBroken clouds.12 mph62%29.98 "HgN/A
9:58 AM50 °FSunny.10 mph66%29.96 "HgN/A
8:58 AM48 °FPassing clouds.7 mph74%29.93 "HgN/A
7:55 AM45 °FPartly sunny.9 mph81%29.92 "HgN/A
6:55 AM45 °FOvercast.7 mph81%29.88 "HgN/A
4:58 AM46 °FOvercast.8 mph81%29.82 "HgN/A
3:58 AM46 °FOvercast.7 mph82%29.81 "HgN/A
2:58 AM46 °FOvercast.7 mph83%29.79 "HgN/A
1:58 AM45 °FOvercast.5 mph87%29.78 "HgN/A
12:58 AM46 °FOvercast.13 mph82%29.76 "HgN/A
11:58 PM
Mon, Apr 27
46 °FOvercast.8 mph82%29.75 "HgN/A
10:58 PM46 °FOvercast.8 mph87%29.74 "HgN/A
10:03 PM46 °FMostly cloudy.7 mph87%29.72 "HgN/A
9:58 PM47 °FOvercast.7 mph89%29.73 "HgN/A
8:58 PM47 °FLight rain. Passing clouds.10 mph91%29.70 "HgN/A
7:58 PM49 °FLight rain. Scattered clouds.3 mph89%29.69 "HgN/A
6:58 PM51 °FLight rain. Partly sunny.10 mph94%29.68 "HgN/A
5:58 PM52 °FRain. Scattered clouds.12 mph96%29.67 "HgN/A
4:58 PM54 °FSunny.5 mph100%29.65 "HgN/A
3:58 PM54 °FRain. Passing clouds.6 mph100%29.65 "HgN/A
2:58 PM54 °FLight rain. Partly sunny.7 mph100%29.65 "HgN/A
2:00 PM54 °FRain. Partly sunny.8 mph100%29.63 "HgN/A
Weather by CustomWeather, © 2015

See weather overviewHow to use our weather pages